,,Stat6,,Stat2,,Stat8,,Stat9,,Stat10,,Wind1,,Wind1,
time,status,PA1M_AVG,status,PR1M_SUM,status,RH1M_AVG,status,SR1M_AVG,status,TA1M_AVG,status,W1dAve1m,status,W1sAve1m,
2007-05-01, 00:00:00,VALID,917.773,VALID,0,VALID,95.6476,VALID,-0.0849042,VALID,19.3626,VALID,96,VALID,0.267535,
2007-05-01, 00:01:00,VALID,917.798,VALID,0,VALID,95.6565,VALID,-0.0679233,VALID,19.3589,VALID,96,VALID,0.0224609,
2007-05-01, 00:02:00,VALID,917.81,VALID,0,VALID,95.528,VALID,-0.0849042,VALID,19.3492,VALID,72,VALID,0.376272,
2007-05-01, 00:03:00,VALID,917.806,VALID,0,VALID,95.5293,VALID,-0.0849042,VALID,19.3522,VALID,32,VALID,0.436612,
2007-05-01, 00:04:00,VALID,917.805,VALID,0,VALID,95.7366,VALID,-0.101885,VALID,19.3976,VALID,32,VALID,0.411399,
2007-05-01, 00:05:00,VALID,917.808,VALID,0,VALID,95.8981,VALID,-0.0339617,VALID,19.4397,VALID,32,VALID,0.208097,
2007-05-01, 00:06:00,VALID,917.82,VALID,0,VALID,95.7289,VALID,-0.0849042,VALID,19.4308,VALID,7,VALID,0.439135,
2007-05-01, 00:07:00,VALID,917.842,VALID,0,VALID,95.8319,VALID,-0.0849042,VALID,19.4078,VALID,321,VALID,0.824609,
2007-05-01, 00:08:00,VALID,917.845,VALID,0,VALID,95.9782,VALID,-0.0849042,VALID,19.4565,VALID,320,VALID,0.632227,
2007-05-01, 00:09:00,VALID,917.855,VALID,0,VALID,95.7684,VALID,-0.0169808,VALID,19.4947,VALID,320,VALID,0.458594,
2007-05-01, 00:10:00,VALID,917.884,VALID,0,VALID,95.7353,VALID,-0.0509425,VALID,19.4947,VALID,320,VALID,0.397135,
2007-05-01, 00:11:00,VALID,917.887,VALID,0,VALID,95.8904,VALID,-0.0169808,VALID,19.5011,VALID,320,VALID,0.163061,
2007-05-01, 00:12:00,VALID,917.881,VALID,0,VALID,95.9756,VALID,-0.0339617,VALID,19.4852,VALID,320,VALID,0.0400152,
2007-05-01, 00:13:00,VALID,917.863,VALID,0,VALID,96.0265,VALID,-0.0849042,VALID,19.4527,VALID,320,VALID,0,
2007-05-01, 00:14:00,VALID,917.849,VALID,0,VALID,96.2757,VALID,-0.0339617,VALID,19.4365,VALID,320,VALID,0,
2007-05-01, 00:15:00,VALID,917.809,VALID,0,VALID,96.511,VALID,-0.0339617,VALID,19.4203,VALID,320,VALID,0.0142045,
2007-05-01, 00:16:00,VALID,917.778,VALID,0,VALID,96.6508,VALID,-0.0679233,VALID,19.4073,VALID,320,VALID,0.0442116,
2007-05-01, 00:17:00,VALID,917.749,VALID,0,VALID,96.7551,VALID,-0.0849042,VALID,19.3976,VALID,320,VALID,0,
2007-05-01, 00:18:00,VALID,917.732,VALID,0,VALID,97.1964,VALID,-0.0339617,VALID,19.4268,VALID,320,VALID,0,
2007-05-01, 00:19:00,VALID,917.705,VALID,0,VALID,97.5308,VALID,-0.101885,VALID,19.4495,VALID,320,VALID,0,
2007-05-01, 00:20:00,VALID,917.66,VALID,0,VALID,97.4748,VALID,-0.0679233,VALID,19.4562,VALID,320,VALID,0.0520198,
2007-05-01, 00:21:00,VALID,917.64,VALID,0,VALID,97.232,VALID,-0.0509425,VALID,19.4076,VALID,320,VALID,0.332031,
2007-05-01, 00:22:00,VALID,917.612,VALID,0,VALID,97.2065,VALID,-0.0339617,VALID,19.3392,VALID,320,VALID,0.56875,
2007-05-01, 00:23:00,VALID,917.587,VALID,0,VALID,97.5499,VALID,-0.0509425,VALID,19.2678,VALID,25,VALID,0.605923,
2007-05-01, 00:24:00,VALID,917.572,VALID,0,VALID,98.0026,VALID,-0.0679233,VALID,19.2453,VALID,117,VALID,0.506288,
2007-05-01, 00:25:00,VALID,917.566,VALID,0,VALID,98.2289,VALID,-0.0509425,VALID,19.271,VALID,106,VALID,0.59189,
2007-05-01, 00:26:00,VALID,917.561,VALID,0,VALID,98.2073,VALID,-0.0509425,VALID,19.291,VALID,95,VALID,0.0851935,
2007-05-01, 00:27:00,VALID,917.553,VALID,0,VALID,98.0471,VALID,-0.0169808,VALID,19.2646,VALID,95,VALID,0.0419034,
2007-05-01, 00:28:00,VALID,917.534,VALID,0,VALID,98.042,VALID,0,VALID,19.2551,VALID,95,VALID,0.0519622,
2007-05-01, 00:29:00,VALID,917.504,VALID,0,VALID,98.0471,VALID,-0.0849042,VALID,19.2551,VALID,95,VALID,0.0268674,
2007-05-01, 00:30:00,VALID,917.496,VALID,0,VALID,97.9199,VALID,-0.0849042,VALID,19.2646,VALID,95,VALID,0.299419,
2007-05-01, 00:31:00,VALID,917.506,VALID,0,VALID,97.7788,VALID,-0.0849042,VALID,19.294,VALID,94,VALID,0.537007,
2007-05-01, 00:32:00,VALID,917.491,VALID,0,VALID,97.6961,VALID,-0.0339617,VALID,19.3267,VALID,94,VALID,0.378348,
2007-05-01, 00:33:00,VALID,917.476,VALID,0,VALID,97.5168,VALID,-0.0509425,VALID,19.3264,VALID,76,VALID,0.731831,
2007-05-01, 00:34:00,VALID,917.454,VALID,0,VALID,97.354,VALID,-0.0849042,VALID,19.3102,VALID,66,VALID,0.880394,
2007-05-01, 00:35:00,VALID,917.459,VALID,0,VALID,97.2434,VALID,-0.0679233,VALID,19.3002,VALID,64,VALID,1.07813,
2007-05-01, 00:36:00,VALID,917.46,VALID,0,VALID,97.1811,VALID,-0.0169808,VALID,19.3032,VALID,64,VALID,0.96582,
2007-05-01, 00:37:00,VALID,917.437,VALID,0,VALID,96.9942,VALID,-0.0339617,VALID,19.323,VALID,65,VALID,0.651972,
2007-05-01, 00:38:00,VALID,917.424,VALID,0,VALID,96.9192,VALID,-0.0509425,VALID,19.3167,VALID,89,VALID,0.645089,
2007-05-01, 00:39:00,VALID,917.408,VALID,0,VALID,96.8683,VALID,-0.0509425,VALID,19.3032,VALID,123,VALID,0.798147,
2007-05-01, 00:40:00,VALID,917.397,VALID,0,VALID,96.9891,VALID,-0.0509425,VALID,19.2743,VALID,132,VALID,0.943496,
2007-05-01, 00:41:00,VALID,917.372,VALID,0,VALID,97.2409,VALID,-0.0169808,VALID,19.2451,VALID,144,VALID,0.891555,
2007-05-01, 00:42:00,VALID,917.371,VALID,0,VALID,97.5867,VALID,-0.0509425,VALID,19.2159,VALID,151,VALID,0.83194,
2007-05-01, 00:43:00,VALID,917.358,VALID,0,VALID,97.8741,VALID,-0.0339617,VALID,19.1999,VALID,148,VALID,0.807292,
2007-05-01, 00:44:00,VALID,917.342,VALID,0,VALID,98.1742,VALID,-0.0169808,VALID,19.1865,VALID,141,VALID,0.841388,
2007-05-01, 00:45:00,VALID,917.331,VALID,0,VALID,98.309,VALID,-0.0509425,VALID,19.1805,VALID,138,VALID,0.611632,
2007-05-01, 00:46:00,VALID,917.335,VALID,0,VALID,98.3357,VALID,0,VALID,19.1837,VALID,133,VALID,0.676883,
2007-05-01, 00:47:00,VALID,917.352,VALID,0,VALID,98.3116,VALID,-0.0509425,VALID,19.1767,VALID,132,VALID,0.652249,
2007-05-01, 00:48:00,VALID,917.348,VALID,0,VALID,98.3929,VALID,-0.0169808,VALID,19.164,VALID,127,VALID,0.851935,
2007-05-01, 00:49:00,VALID,917.351,VALID,0,VALID,98.7045,VALID,-0.0509425,VALID,19.1607,VALID,124,VALID,1.08256,
2007-05-01, 00:50:00,VALID,917.349,VALID,0,VALID,98.9588,VALID,-0.0509425,VALID,19.1343,VALID,123,VALID,1.11537,
2007-05-01, 00:51:00,VALID,917.339,VALID,0,VALID,98.9664,VALID,-0.0679233,VALID,19.1054,VALID,113,VALID,1.10865,
2007-05-01, 00:52:00,VALID,917.345,VALID,0,VALID,98.7465,VALID,-0.101885,VALID,19.0796,VALID,102,VALID,1.08956,
2007-05-01, 00:53:00,VALID,917.346,VALID,0,VALID,98.4769,VALID,0,VALID,19.1118,VALID,102,VALID,1.00539,
2007-05-01, 00:54:00,VALID,917.314,VALID,0,VALID,98.0102,VALID,-0.0169808,VALID,19.1545,VALID,105,VALID,0.977083,
2007-05-01, 00:55:00,VALID,917.297,VALID,0,VALID,97.7139,VALID,-0.0509425,VALID,19.2059,VALID,108,VALID,0.815589,
2007-05-01, 00:56:00,VALID,917.27,VALID,0,VALID,97.6529,VALID,-0.0169808,VALID,19.2286,VALID,111,VALID,0.612847,
2007-05-01, 00:57:00,VALID,917.252,VALID,0,VALID,97.6643,VALID,-0.0339617,VALID,19.2189,VALID,129,VALID,0.824855,
2007-05-01, 00:58:00,VALID,917.228,VALID,0,VALID,97.9962,VALID,-0.0339617,VALID,19.2124,VALID,142,VALID,1.0427,
2007-05-01, 00:59:00,VALID,917.209,VALID,0,VALID,98.2543,VALID,-0.118866,VALID,19.2141,VALID,152,VALID,0.988381,
2007-05-01, 01:00:00,VALID,917.202,VALID,0,VALID,98.4286,VALID,-0.118866,VALID,19.2046,VALID,155,VALID,0.795015,
2007-05-01, 01:01:00,VALID,917.186,VALID,0,VALID,98.557,VALID,-0.135847,VALID,19.1912,VALID,155,VALID,0.603125,
2007-05-01, 01:02:00,VALID,917.176,VALID,0,VALID,98.6282,VALID,-0.101885,VALID,19.1779,VALID,155,VALID,0.384993,
2007-05-01, 01:03:00,VALID,917.177,VALID,0,VALID,98.7299,VALID,-0.118866,VALID,19.1852,VALID,155,VALID,0.0345982,
2007-05-01, 01:04:00,VALID,917.161,VALID,0,VALID,98.7465,VALID,-0.152827,VALID,19.1817,VALID,155,VALID,0.000363372,
2007-05-01, 01:05:00,VALID,917.148,VALID,0,VALID,98.8698,VALID,-0.118866,VALID,19.1782,VALID,155,VALID,0.108232,
2007-05-01, 01:06:00,VALID,917.142,VALID,0,VALID,99.044,VALID,-0.101885,VALID,19.1654,VALID,136,VALID,0.673785,
2007-05-01, 01:07:00,VALID,917.128,VALID,0,VALID,99.0453,VALID,-0.101885,VALID,19.1784,VALID,121,VALID,0.839026,
2007-05-01, 01:08:00,VALID,917.123,VALID,0,VALID,98.7503,VALID,-0.0849042,VALID,19.2106,VALID,121,VALID,0.869665,
2007-05-01, 01:09:00,VALID,917.115,VALID,0,VALID,98.4832,VALID,-0.101885,VALID,19.279,VALID,121,VALID,0.727751,
2007-05-01, 01:10:00,VALID,917.114,VALID,0,VALID,98.2391,VALID,-0.101885,VALID,19.295,VALID,121,VALID,0.609197,
2007-05-01, 01:11:00,VALID,917.107,VALID,0,VALID,98.0992,VALID,-0.101885,VALID,19.2822,VALID,121,VALID,0.212612,
2007-05-01, 01:12:00,VALID,917.088,VALID,0,VALID,97.9809,VALID,-0.101885,VALID,19.2466,VALID,121,VALID,0,
2007-05-01, 01:13:00,VALID,917.076,VALID,0,VALID,98.0255,VALID,-0.118866,VALID,19.2206,VALID,121,VALID,0,
2007-05-01, 01:14:00,VALID,917.058,VALID,0,VALID,98.1094,VALID,-0.0169808,VALID,19.2094,VALID,121,VALID,0,
2007-05-01, 01:15:00,VALID,917.036,VALID,0,VALID,98.0534,VALID,-0.0169808,VALID,19.1932,VALID,121,VALID,0,
2007-05-01, 01:16:00,VALID,917.011,VALID,0,VALID,97.9568,VALID,-0.0169808,VALID,19.1702,VALID,121,VALID,0,
2007-05-01, 01:17:00,VALID,916.981,VALID,0,VALID,97.9517,VALID,0,VALID,19.144,VALID,121,VALID,0,
2007-05-01, 01:18:00,VALID,916.967,VALID,0,VALID,98.0585,VALID,0,VALID,19.1475,VALID,120,VALID,0.0930233,
2007-05-01, 01:19:00,VALID,916.943,VALID,0,VALID,97.911,VALID,0,VALID,19.1478,VALID,118,VALID,0.0408794,
2007-05-01, 01:20:00,VALID,916.93,VALID,0,VALID,97.9924,VALID,0,VALID,19.1153,VALID,118,VALID,0,
2007-05-01, 01:21:00,VALID,916.936,VALID,0,VALID,98.1208,VALID,0,VALID,19.0894,VALID,118,VALID,0.22309,
2007-05-01, 01:22:00,VALID,916.913,VALID,0,VALID,98.178,VALID,0,VALID,19.0697,VALID,95,VALID,0.47516,
2007-05-01, 01:23:00,VALID,916.908,VALID,0,VALID,98.1285,VALID,0,VALID,19.0372,VALID,89,VALID,0.276972,
2007-05-01, 01:24:00,VALID,916.895,VALID,0,VALID,98.0941,VALID,0,VALID,19.0143,VALID,89,VALID,0.425409,
2007-05-01, 01:25:00,VALID,916.892,VALID,0,VALID,97.9962,VALID,0.0169808,VALID,19.0043,VALID,89,VALID,0.46532,
2007-05-01, 01:26:00,VALID,916.87,VALID,0,VALID,97.7101,VALID,0.0169808,VALID,19.0205,VALID,74,VALID,0.463605,
2007-05-01, 01:27:00,VALID,916.861,VALID,0,VALID,97.3909,VALID,0,VALID,19.0537,VALID,74,VALID,0.353871,
2007-05-01, 01:28:00,VALID,916.845,VALID,0,VALID,97.0234,VALID,-0.0339617,VALID,19.05,VALID,63,VALID,0.416349,
2007-05-01, 01:29:00,VALID,916.835,VALID,0,VALID,96.7004,VALID,0,VALID,19.0759,VALID,45,VALID,0.647321,
2007-05-01, 01:30:00,VALID,916.821,VALID,0,VALID,96.5936,VALID,0,VALID,19.1026,VALID,44,VALID,0.38205,
2007-05-01, 01:31:00,VALID,916.834,VALID,0,VALID,96.4627,VALID,0,VALID,19.044,VALID,44,VALID,0.261541,
2007-05-01, 01:32:00,VALID,916.838,VALID,0,VALID,96.4448,VALID,0,VALID,18.9754,VALID,44,VALID,0.240234,
2007-05-01, 01:33:00,VALID,916.837,VALID,0,VALID,96.4512,VALID,0,VALID,19.0043,VALID,44,VALID,0.3125,
2007-05-01, 01:34:00,VALID,916.83,VALID,0,VALID,96.394,VALID,0,VALID,19.0305,VALID,33,VALID,0.53125,
2007-05-01, 01:35:00,VALID,916.808,VALID,0,VALID,96.2923,VALID,0,VALID,19.0792,VALID,23,VALID,0.486049,
2007-05-01, 01:36:00,VALID,916.799,VALID,0,VALID,96.2325,VALID,0.0169808,VALID,19.1114,VALID,11,VALID,0.322359,
2007-05-01, 01:37:00,VALID,916.785,VALID,0,VALID,96.118,VALID,0,VALID,19.1473,VALID,3,VALID,0.534979,
2007-05-01, 01:38:00,VALID,916.769,VALID,0,VALID,95.8866,VALID,0,VALID,19.1962,VALID,2,VALID,0.434375,
2007-05-01, 01:39:00,VALID,916.76,VALID,0,VALID,95.5941,VALID,-0.0169808,VALID,19.2059,VALID,2,VALID,0.247692,
2007-05-01, 01:40:00,VALID,916.749,VALID,0,VALID,95.3907,VALID,-0.0169808,VALID,19.1927,VALID,2,VALID,0.136242,
2007-05-01, 01:41:00,VALID,916.74,VALID,0,VALID,95.3068,VALID,0,VALID,19.2124,VALID,2,VALID,0.153646,
2007-05-01, 01:42:00,VALID,916.741,VALID,0,VALID,95.1643,VALID,0.0339617,VALID,19.2314,VALID,2,VALID,0.0939317,
2007-05-01, 01:43:00,VALID,916.75,VALID,0,VALID,94.8439,VALID,0,VALID,19.2646,VALID,2,VALID,0.0628906,
2007-05-01, 01:44:00,VALID,916.741,VALID,0,VALID,94.807,VALID,0,VALID,19.303,VALID,2,VALID,0.0427912,
2007-05-01, 01:45:00,VALID,916.751,VALID,0,VALID,94.746,VALID,0.0169808,VALID,19.3035,VALID,2,VALID,0.0278201,
2007-05-01, 01:46:00,VALID,916.739,VALID,0,VALID,94.8159,VALID,-0.0339617,VALID,19.2835,VALID,2,VALID,0,
2007-05-01, 01:47:00,VALID,916.731,VALID,0,VALID,94.8541,VALID,-0.0339617,VALID,19.2778,VALID,2,VALID,0,
2007-05-01, 01:48:00,VALID,916.714,VALID,0,VALID,94.4446,VALID,-0.0509425,VALID,19.3035,VALID,2,VALID,0.143532,
2007-05-01, 01:49:00,VALID,916.686,VALID,0,VALID,94.1445,VALID,-0.0509425,VALID,19.3876,VALID,2,VALID,0.0987723,
2007-05-01, 01:50:00,VALID,916.657,VALID,0,VALID,93.7173,VALID,0,VALID,19.4397,VALID,2,VALID,0,
2007-05-01, 01:51:00,VALID,916.638,VALID,0,VALID,93.3561,VALID,0,VALID,19.449,VALID,2,VALID,0.0100446,
2007-05-01, 01:52:00,VALID,916.613,VALID,0,VALID,93.1374,VALID,0,VALID,19.5106,VALID,2,VALID,0.21131,
2007-05-01, 01:53:00,VALID,916.59,VALID,0,VALID,93.0064,VALID,0.0339617,VALID,19.5266,VALID,2,VALID,0.118641,
2007-05-01, 01:54:00,VALID,916.597,VALID,0,VALID,92.967,VALID,0.0169808,VALID,19.4912,VALID,2,VALID,0,
2007-05-01, 01:55:00,VALID,916.573,VALID,0,VALID,92.9874,VALID,0.0169808,VALID,19.4483,VALID,2,VALID,0,
2007-05-01, 01:56:00,VALID,916.56,VALID,0,VALID,92.8462,VALID,-0.0169808,VALID,19.4612,VALID,2,VALID,0.0243902,
2007-05-01, 01:57:00,VALID,916.551,VALID,0,VALID,92.6211,VALID,0.0339617,VALID,19.5628,VALID,2,VALID,0.415587,
2007-05-01, 01:58:00,VALID,916.552,VALID,0,VALID,92.335,VALID,0.0339617,VALID,19.5975,VALID,25,VALID,0.481771,
2007-05-01, 01:59:00,VALID,916.556,VALID,0,VALID,92.101,VALID,0,VALID,19.5947,VALID,27,VALID,0.429324,
2007-05-01, 02:00:00,VALID,916.546,VALID,0,VALID,92.0604,VALID,0,VALID,19.5458,VALID,27,VALID,0.366044,
2007-05-01, 02:01:00,VALID,916.543,VALID,0,VALID,92.2104,VALID,0,VALID,19.4972,VALID,30,VALID,0.51527,
2007-05-01, 02:02:00,VALID,916.527,VALID,0,VALID,92.3617,VALID,0,VALID,19.4804,VALID,51,VALID,0.517078,
2007-05-01, 02:03:00,VALID,916.526,VALID,0,VALID,92.5003,VALID,0.0169808,VALID,19.4677,VALID,58,VALID,0.540761,
2007-05-01, 02:04:00,VALID,916.523,VALID,0,VALID,92.7292,VALID,0,VALID,19.4385,VALID,61,VALID,0.359557,
2007-05-01, 02:05:00,VALID,916.516,VALID,0,VALID,92.9835,VALID,0.0169808,VALID,19.3968,VALID,61,VALID,0.219308,
2007-05-01, 02:06:00,VALID,916.509,VALID,0,VALID,93.2175,VALID,0,VALID,19.3414,VALID,61,VALID,0.0846354,
2007-05-01, 02:07:00,VALID,916.5,VALID,0,VALID,93.4591,VALID,-0.0169808,VALID,19.2928,VALID,61,VALID,0.176054,
2007-05-01, 02:08:00,VALID,916.483,VALID,0,VALID,93.688,VALID,-0.0169808,VALID,19.2376,VALID,61,VALID,0.290153,
2007-05-01, 02:09:00,VALID,916.476,VALID,0,VALID,93.8991,VALID,-0.0169808,VALID,19.17,VALID,61,VALID,0.202431,
2007-05-01, 02:10:00,VALID,916.463,VALID,0,VALID,94.3073,VALID,-0.0169808,VALID,19.1273,VALID,61,VALID,0.0488281,
2007-05-01, 02:11:00,VALID,916.445,VALID,0,VALID,94.6582,VALID,0,VALID,19.1373,VALID,61,VALID,0,
2007-05-01, 02:12:00,VALID,916.445,VALID,0,VALID,94.8375,VALID,-0.0169808,VALID,19.1373,VALID,61,VALID,0,
2007-05-01, 02:13:00,VALID,916.442,VALID,0,VALID,94.9049,VALID,0,VALID,19.1176,VALID,61,VALID,0,
2007-05-01, 02:14:00,VALID,916.43,VALID,0,VALID,95.1186,VALID,0,VALID,19.1074,VALID,61,VALID,0,
2007-05-01, 02:15:00,VALID,916.427,VALID,0,VALID,95.2597,VALID,-0.0169808,VALID,19.1273,VALID,61,VALID,0,
2007-05-01, 02:16:00,VALID,916.411,VALID,0,VALID,95.2241,VALID,-0.0169808,VALID,19.1473,VALID,61,VALID,0,
2007-05-01, 02:17:00,VALID,916.404,VALID,0,VALID,95.2165,VALID,-0.0339617,VALID,19.1668,VALID,61,VALID,0,
2007-05-01, 02:18:00,VALID,916.39,VALID,0,VALID,95.2152,VALID,0,VALID,19.1665,VALID,61,VALID,0,
2007-05-01, 02:19:00,VALID,916.396,VALID,0,VALID,95.1796,VALID,0,VALID,19.1625,VALID,61,VALID,0,
2007-05-01, 02:20:00,VALID,916.387,VALID,0,VALID,95.1834,VALID,0,VALID,19.1767,VALID,61,VALID,0,
2007-05-01, 02:21:00,VALID,916.399,VALID,0,VALID,95.308,VALID,-0.0339617,VALID,19.1698,VALID,61,VALID,0,
2007-05-01, 02:22:00,VALID,916.393,VALID,0,VALID,95.3233,VALID,-0.0169808,VALID,19.163,VALID,61,VALID,0,
2007-05-01, 02:23:00,VALID,916.397,VALID,0,VALID,95.3131,VALID,0.0169808,VALID,19.1792,VALID,61,VALID,0,
2007-05-01, 02:24:00,VALID,916.381,VALID,0,VALID,95.3538,VALID,0,VALID,19.1895,VALID,61,VALID,0.0886009,
2007-05-01, 02:25:00,VALID,916.377,VALID,0,VALID,95.5878,VALID,0,VALID,19.1498,VALID,61,VALID,0.0862772,
2007-05-01, 02:26:00,VALID,916.348,VALID,0,VALID,95.8243,VALID,0,VALID,19.1271,VALID,61,VALID,0.266667,
2007-05-01, 02:27:00,VALID,916.342,VALID,0,VALID,95.8574,VALID,-0.0169808,VALID,19.1016,VALID,61,VALID,0.173828,
2007-05-01, 02:28:00,VALID,916.325,VALID,0,VALID,95.9209,VALID,-0.0339617,VALID,19.0792,VALID,58,VALID,0.437145,
2007-05-01, 02:29:00,VALID,916.325,VALID,0,VALID,96.0926,VALID,-0.118866,VALID,19.0644,VALID,44,VALID,0.467862,
2007-05-01, 02:30:00,VALID,916.31,VALID,0,VALID,96.2363,VALID,-0.101885,VALID,19.0642,VALID,41,VALID,0.197545,
2007-05-01, 02:31:00,VALID,916.301,VALID,0,VALID,96.319,VALID,-0.101885,VALID,19.0669,VALID,9,VALID,0.385975,
2007-05-01, 02:32:00,VALID,916.31,VALID,0,VALID,96.3062,VALID,-0.118866,VALID,19.1193,VALID,9,VALID,0.377604,
2007-05-01, 02:33:00,VALID,916.297,VALID,0,VALID,96.2808,VALID,-0.101885,VALID,19.1483,VALID,10,VALID,0.354403,
2007-05-01, 02:34:00,VALID,916.293,VALID,0,VALID,96.2109,VALID,-0.118866,VALID,19.1777,VALID,10,VALID,0.551258,
2007-05-01, 02:35:00,VALID,916.294,VALID,0,VALID,96.0494,VALID,-0.152827,VALID,19.2264,VALID,4,VALID,0.521076,
2007-05-01, 02:36:00,VALID,916.296,VALID,0,VALID,96.0519,VALID,-0.118866,VALID,19.2581,VALID,7,VALID,0.559338,
2007-05-01, 02:37:00,VALID,916.294,VALID,0,VALID,96.0354,VALID,-0.101885,VALID,19.304,VALID,20,VALID,0.405887,
2007-05-01, 02:38:00,VALID,916.285,VALID,0,VALID,95.7747,VALID,-0.0679233,VALID,19.3264,VALID,13,VALID,0.378906,
2007-05-01, 02:39:00,VALID,916.282,VALID,0,VALID,95.6348,VALID,-0.101885,VALID,19.3656,VALID,13,VALID,0.0257994,
2007-05-01, 02:40:00,VALID,916.284,VALID,0,VALID,95.603,VALID,-0.118866,VALID,19.4018,VALID,13,VALID,0,
2007-05-01, 02:41:00,VALID,916.261,VALID,0,VALID,95.6425,VALID,-0.101885,VALID,19.4338,VALID,13,VALID,0,
2007-05-01, 02:42:00,VALID,916.263,VALID,0,VALID,95.687,VALID,-0.152827,VALID,19.454,VALID,13,VALID,0,
2007-05-01, 02:43:00,VALID,916.251,VALID,0,VALID,95.7696,VALID,-0.101885,VALID,19.4699,VALID,13,VALID,0.0738467,
2007-05-01, 02:44:00,VALID,916.238,VALID,0,VALID,95.5636,VALID,-0.0169808,VALID,19.4749,VALID,13,VALID,0.0295759,
2007-05-01, 02:45:00,VALID,916.229,VALID,0,VALID,95.7022,VALID,-0.0339617,VALID,19.4747,VALID,13,VALID,0,
2007-05-01, 02:46:00,VALID,916.223,VALID,0,VALID,95.4466,VALID,-0.0509425,VALID,19.4749,VALID,13,VALID,0,
2007-05-01, 02:47:00,VALID,916.222,VALID,0,VALID,95.5369,VALID,-0.0169808,VALID,19.468,VALID,13,VALID,0,
2007-05-01, 02:48:00,VALID,916.204,VALID,0,VALID,95.7785,VALID,-0.0169808,VALID,19.4849,VALID,13,VALID,0,
2007-05-01, 02:49:00,VALID,916.187,VALID,0,VALID,95.6997,VALID,-0.0169808,VALID,19.4951,VALID,13,VALID,0,
2007-05-01, 02:50:00,VALID,916.174,VALID,0,VALID,95.3106,VALID,0,VALID,19.4715,VALID,13,VALID,0,
2007-05-01, 02:51:00,VALID,916.158,VALID,0,VALID,94.9164,VALID,-0.0339617,VALID,19.4914,VALID,13,VALID,0,
2007-05-01, 02:52:00,VALID,916.143,VALID,0,VALID,94.7879,VALID,0,VALID,19.5363,VALID,13,VALID,0.016644,
2007-05-01, 02:53:00,VALID,916.121,VALID,0,VALID,94.451,VALID,-0.0169808,VALID,19.5848,VALID,30,VALID,0.301314,
2007-05-01, 02:54:00,VALID,916.1,VALID,0,VALID,93.88,VALID,-0.0339617,VALID,19.6145,VALID,35,VALID,0.476381,
2007-05-01, 02:55:00,VALID,916.082,VALID,0,VALID,93.6842,VALID,-0.0169808,VALID,19.6534,VALID,35,VALID,0.547238,
2007-05-01, 02:56:00,VALID,916.073,VALID,0,VALID,93.2798,VALID,-0.0169808,VALID,19.6664,VALID,35,VALID,0.35026,
2007-05-01, 02:57:00,VALID,916.066,VALID,0,VALID,92.8704,VALID,-0.0339617,VALID,19.7053,VALID,35,VALID,0.226926,
2007-05-01, 02:58:00,VALID,916.049,VALID,0,VALID,92.8627,VALID,-0.0169808,VALID,19.738,VALID,35,VALID,0,
2007-05-01, 02:59:00,VALID,916.044,VALID,0,VALID,92.8144,VALID,-0.0169808,VALID,19.7445,VALID,35,VALID,0,
2007-05-01, 03:00:00,VALID,916.043,VALID,0,VALID,92.6631,VALID,-0.0169808,VALID,19.7475,VALID,35,VALID,0,
2007-05-01, 03:01:00,VALID,916.042,VALID,0,VALID,93.159,VALID,0,VALID,19.8029,VALID,35,VALID,0.0180432,
2007-05-01, 03:02:00,VALID,916.039,VALID,0,VALID,92.9874,VALID,-0.0509425,VALID,19.8029,VALID,35,VALID,0.0889137,
2007-05-01, 03:03:00,VALID,916.056,VALID,0,VALID,93.7351,VALID,-0.0339617,VALID,19.8029,VALID,35,VALID,0,
2007-05-01, 03:04:00,VALID,916.063,VALID,0,VALID,93.8393,VALID,0,VALID,19.7704,VALID,35,VALID,0,
2007-05-01, 03:05:00,VALID,916.065,VALID,0,VALID,93.1336,VALID,-0.0679233,VALID,19.732,VALID,35,VALID,0.216016,
2007-05-01, 03:06:00,VALID,916.081,VALID,0,VALID,92.7699,VALID,-0.0339617,VALID,19.7155,VALID,35,VALID,0.353743,
2007-05-01, 03:07:00,VALID,916.094,VALID,0,VALID,92.9874,VALID,-0.0339617,VALID,19.7347,VALID,35,VALID,0.415128,
2007-05-01, 03:08:00,VALID,916.101,VALID,0,VALID,93.4604,VALID,-0.0169808,VALID,19.7347,VALID,35,VALID,0.341332,
2007-05-01, 03:09:00,VALID,916.123,VALID,0,VALID,93.3587,VALID,-0.0339617,VALID,19.7018,VALID,35,VALID,0.134266,
2007-05-01, 03:10:00,VALID,916.124,VALID,0,VALID,93.6244,VALID,-0.0339617,VALID,19.7158,VALID,35,VALID,0,
2007-05-01, 03:11:00,VALID,916.134,VALID,0,VALID,93.4324,VALID,-0.0509425,VALID,19.6893,VALID,35,VALID,0.197743,
2007-05-01, 03:12:00,VALID,916.137,VALID,0,VALID,93.4731,VALID,-0.0169808,VALID,19.6993,VALID,35,VALID,0.249442,
2007-05-01, 03:13:00,VALID,916.126,VALID,0,VALID,93.2162,VALID,-0.0679233,VALID,19.7023,VALID,35,VALID,0.18423,
2007-05-01, 03:14:00,VALID,916.116,VALID,0,VALID,93.0001,VALID,-0.0509425,VALID,19.712,VALID,35,VALID,0.0994318,
2007-05-01, 03:15:00,VALID,916.118,VALID,0,VALID,92.7686,VALID,-0.0679233,VALID,19.7415,VALID,35,VALID,0.17168,
2007-05-01, 03:16:00,VALID,916.116,VALID,0,VALID,93.5049,VALID,-0.0509425,VALID,19.8129,VALID,35,VALID,0.243144,
2007-05-01, 03:17:00,VALID,916.104,VALID,0,VALID,93.1616,VALID,-0.0509425,VALID,19.8094,VALID,35,VALID,0.309048,
2007-05-01, 03:18:00,VALID,916.085,VALID,0,VALID,93.173,VALID,0,VALID,19.8386,VALID,35,VALID,0.127232,
2007-05-01, 03:19:00,VALID,916.078,VALID,0,VALID,92.6593,VALID,-0.0509425,VALID,19.8421,VALID,35,VALID,0.103161,
2007-05-01, 03:20:00,VALID,916.061,VALID,0,VALID,92.3643,VALID,-0.0509425,VALID,19.8451,VALID,35,VALID,0.000186012,
2007-05-01, 03:21:00,VALID,916.054,VALID,0,VALID,92.0693,VALID,0,VALID,19.9002,VALID,17,VALID,0.373884,
2007-05-01, 03:22:00,VALID,916.047,VALID,0,VALID,92.4088,VALID,-0.0339617,VALID,19.9686,VALID,14,VALID,0.0143821,
2007-05-01, 03:23:00,VALID,916.029,VALID,0,VALID,92.6428,VALID,-0.0169808,VALID,20.0111,VALID,14,VALID,0.263622,
2007-05-01, 03:24:00,VALID,916.013,VALID,0,VALID,92.8309,VALID,-0.0339617,VALID,20.0076,VALID,14,VALID,0.318714,
2007-05-01, 03:25:00,VALID,915.989,VALID,0,VALID,92.3922,VALID,-0.0169808,VALID,19.9749,VALID,15,VALID,0.29742,
2007-05-01, 03:26:00,VALID,915.967,VALID,0,VALID,92.6593,VALID,-0.0679233,VALID,19.9459,VALID,15,VALID,0.441051,
2007-05-01, 03:27:00,VALID,915.954,VALID,0,VALID,92.5588,VALID,-0.0169808,VALID,19.9102,VALID,15,VALID,0.585537,
2007-05-01, 03:28:00,VALID,915.949,VALID,0,VALID,92.6262,VALID,-0.0509425,VALID,19.9132,VALID,15,VALID,0.39755,
2007-05-01, 03:29:00,VALID,915.932,VALID,0,VALID,92.9327,VALID,-0.0339617,VALID,19.9102,VALID,15,VALID,0.449491,
2007-05-01, 03:30:00,VALID,915.921,VALID,0,VALID,92.8182,VALID,-0.0169808,VALID,19.8875,VALID,15,VALID,0.443004,
2007-05-01, 03:31:00,VALID,915.899,VALID,0,VALID,92.7407,VALID,-0.0339617,VALID,19.8775,VALID,15,VALID,0.245094,
2007-05-01, 03:32:00,VALID,915.881,VALID,0,VALID,92.7648,VALID,-0.0339617,VALID,19.8875,VALID,15,VALID,0.342478,
2007-05-01, 03:33:00,VALID,915.873,VALID,0,VALID,92.5881,VALID,-0.0509425,VALID,19.897,VALID,15,VALID,0.275112,
2007-05-01, 03:34:00,VALID,915.873,VALID,0,VALID,92.3999,VALID,-0.0509425,VALID,19.9135,VALID,15,VALID,0.146019,
2007-05-01, 03:35:00,VALID,915.885,VALID,0,VALID,92.9238,VALID,-0.0509425,VALID,19.9362,VALID,15,VALID,0.180246,